Location: Hicks
(37.9226°N, 89.9954°W)
Time: 08:32:05
(UTC+00:00)

IGS 5A - Pass Details

Date: 14 December 2025
Orbit: 551 x 554 km, 97.4° (Epoch: 8 January)

Event Time Altitude Azimuth Distance (km) Brightness Sun altitude
Rises 23:18:11 0° 175° (S) 2,720 7.1 -7.3°
Reaches altitude 10° 23:20:19 10° 179° (S) 1,830 6.3 -7.7°
Maximum altitude 23:24:14 60° 260° (W) 636 4.0 -8.4°
Drops below altitude 10° 23:28:11 10° 341° (NNW) 1,845 6.0 -9.1°
Sets 23:30:21 0° 345° (NNW) 2,744 6.8 -9.5°
